OSCAR 7 (AO-7) 1 07530U 74089B 25340.98852411 -.00000040 00000+0 39155-4 0 9996 2 07530 101.9966 347.1958 0012341 137.4710 278.6430 12.53694057336431 PHASE 3B (AO-10) 1 14129U 83058B 25337.65654094 -.00000211 00000+0 00000+0 0 9993 2 14129 26.0785 252.7380 6065763 61.0913 346.0829 2.05873532291466 UOSAT 2 (UO-11) 1 14781U 84021B 25340.88419723 .00002776 00000+0 29255-3 0 9999 2 14781 97.7805 304.0038 0009232 98.1399 262.0866 14.90111371228484 LUSAT (LO-19) 1 20442U 90005G 25340.96452063 .00000299 00000+0 12369-3 0 9998 2 20442 98.8963 352.3669 0012395 53.2066 307.0253 14.34040959874843 EYESAT A (AO-27) 1 22825U 93061C 25340.91497828 .00000278 00000+0 12314-3 0 9990 2 22825 98.7154 43.1682 0007498 308.9896 51.0618 14.30873459679502 ITAMSAT (IO-26) 1 22826U 93061D 25340.81147435 .00000324 00000+0 13939-3 0 9992 2 22826 98.7102 42.9632 0007864 290.9179 69.1161 14.31294027679792 RADIO ROSTO (RS-15) 1 23439U 94085A 25340.92672242 -.00000013 00000+0 84945-3 0 9992 2 23439 64.8166 254.1505 0149562 39.5709 321.6021 11.27582570274226 JAS-2 (FO-29) 1 24278U 96046B 25340.93199318 .00000036 00000+0 74652-4 0 9991 2 24278 98.5467 210.8467 0348996 235.0746 121.7145 13.53262361447163 TECHSAT 1B (GO-32) 1 25397U 98043D 25340.94663299 .00000187 00000+0 10089-3 0 9998 2 25397 98.9913 324.0252 0002182 66.7011 293.4397 14.24374547423961 ISS (ZARYA) 1 25544U 98067A 25340.86543100 .00013750 00000+0 25394-3 0 9992 2 25544 51.6304 171.5636 0003497 213.1314 146.9456 15.49374779541942 PCSAT (NO-44) 1 26931U 01043C 25340.86876421 .00000379 00000+0 17258-3 0 9999 2 26931 67.0519 21.6616 0007407 270.3197 89.7056 14.31849848262915 SAUDISAT 1C (SO-50) 1 27607U 02058C 25340.80126021 .00003500 00000+0 43506-3 0 9999 2 27607 64.5544 3.9529 0071932 297.6994 61.6826 14.82351710235931 CUTE-1 (CO-55) 1 27844U 03031E 25340.96954269 .00000676 00000+0 31252-3 0 9990 2 27844 98.6763 346.9469 0010079 29.5125 330.6621 14.24171667164313 CUBESAT XI-IV (CO-57) 1 27848U 03031J 25340.93325621 .00000562 00000+0 26622-3 0 9994 2 27848 98.6794 346.7779 0010277 46.5370 313.6662 14.23480822164023 MOZHAETS 4 (RS-22) 1 27939U 03042A 25340.95474535 .00002607 00000+0 41425-3 0 9998 2 27939 98.3366 155.0015 0011807 153.2103 7.6470 14.72945636187249 CUBESAT XI-V 1 28895U 05043F 25340.86721053 .00003376 00000+0 54679-3 0 9992 2 28895 98.2723 127.8461 0015394 95.5944 264.7018 14.71863615 73451 CUTE-1.7+APD II (CO-65) 1 32785U 08021C 25340.92843077 .00010021 00000+0 67371-3 0 9990 2 32785 97.8087 313.9344 0008491 334.3258 25.7546 15.06936498956216 SEEDS II (CO-66) 1 32791U 08021J 25340.93294875 .00026249 00000+0 10536-2 0 9993 2 32791 97.7438 325.8794 0000931 275.6609 84.4522 15.24956151957913 YUBILEINY (RS-30) 1 32953U 08025A 25340.91613141 .00000017 00000+0 47789-4 0 9993 2 32953 82.5013 115.0447 0019149 13.7226 346.4370 12.43171781795801 KKS-1 (KISEKI) 1 33499U 09002H 25340.86970281 .00003195 00000+0 40559-3 0 9997 2 33499 98.1176 255.3801 0007611 183.3245 176.7918 14.82399503907691 SWISSCUBE 1 35932U 09051B 25340.67948387 .00002877 00000+0 58418-3 0 9995 2 35932 98.4144 240.1508 0008083 90.0703 270.1423 14.61930298861021 BEESAT-1 1 35933U 09051C 25340.66203098 .00002421 00000+0 50050-3 0 9997 2 35933 98.4075 240.1564 0006472 101.2661 258.9267 14.61254771861064 ITUPSAT1 1 35935U 09051E 25340.89759230 .00001989 00000+0 42429-3 0 9997 2 35935 98.4167 239.7802 0008535 110.6599 249.5516 14.60012153860677 XIWANG-1 (HOPE-1) 1 36122U 09072B 25340.88968112 -.00000009 00000+0 93166-4 0 9997 2 36122 100.3768 293.0382 0007144 317.0154 43.0400 13.16432331767700 O/OREOS (USA 219) 1 37224U 10062C 25340.92995787 .00004602 00000+0 45166-3 0 9993 2 37224 71.9691 155.4981 0012882 70.2149 290.0409 14.92623385 87945 JUGNU 1 37839U 11058B 25340.84106124 .00000644 00000+0 19668-3 0 9991 2 37839 19.9618 36.9295 0018737 111.7563 50.5396 14.13692859731771 SRMSAT 1 37841U 11058D 25340.79556374 .00000548 00000+0 15346-3 0 9996 2 37841 19.9699 143.9277 0011715 247.4073 156.7228 14.11508393730605 STRAND-1 1 39090U 13009E 25340.75109113 .00000741 00000+0 26436-3 0 9990 2 39090 98.3824 160.7960 0009786 86.7107 273.5199 14.36997224669425 ZACUBE-1 (TSHEPISOSAT) 1 39417U 13066B 25340.85104808 .00008434 00000+0 68827-3 0 9990 2 39417 97.8074 297.3865 0041567 165.7322 194.5085 14.99001759651896 GOMX-1 1 39430U 13066Q 25340.83775253 .00004332 00000+0 66414-3 0 9994 2 39430 97.6594 188.3324 0130099 335.6110 23.8975 14.68541463641671 CUBEBUG-2 (LO-74) 1 39440U 13066AA 25340.83711126 .00009373 00000+0 90262-3 0 9992 2 39440 97.8703 284.5161 0058625 305.8244 53.7536 14.91872521648293 FUNCUBE-1 (AO-73) 1 39444U 13066AE 25340.87402311 .00013472 00000+0 91562-3 0 9992 2 39444 97.8053 304.0814 0040280 134.8342 225.6170 15.05808706650685 UWE-3 1 39446U 13066AG 25340.79786437 .00008641 00000+0 77604-3 0 9992 2 39446 97.8466 291.1439 0049543 239.9506 119.6796 14.95009762648815 UNISAT-6 1 40012U 14033C 25340.89120516 .00005580 00000+0 62108-3 0 9991 2 40012 97.7616 132.4811 0045980 343.5365 16.4355 14.86739180617577 DUCHIFAT-1 1 40021U 14033M 25340.79880137 .00057328 00000+0 14292-2 0 9999 2 40021 98.0786 11.9964 0007973 52.6482 307.5487 15.39988564625937 QB50P1 1 40025U 14033R 25340.93734872 .00015664 00000+0 85768-3 0 9997 2 40025 98.0961 334.1649 0009920 152.9268 207.2481 15.14288974623890 LILACSAT-2 1 40908U 15049K 25340.84082756 .00024414 00000+0 52795-3 0 9999 2 40908 97.4912 6.0424 0006639 221.5395 138.5349 15.44463951565991 FOX-1A (AO-85) 1 40967U 15058D 25340.90063314 .00006715 00000+0 60450-3 0 9991 2 40967 64.7739 155.9557 0135618 132.2591 229.0119 14.89577570 84917 CAS-2T & KS-1Q 1 41847U 16066G 25340.80320262 .00002015 00000+0 29303-3 0 9997 2 41847 98.4041 53.6012 0343692 353.1615 6.4948 14.44110343477026 RADFXSAT (FOX-1B) 1 43017U 17073E 25340.87477298 .00017205 00000+0 81576-3 0 9993 2 43017 97.4944 207.2043 0159872 270.7789 87.5125 15.08672133436359 DIWATA-2B 1 43678U 18084H 25340.91295240 .00004169 00000+0 34566-3 0 9991 2 43678 98.1022 164.1418 0007509 60.4694 299.7275 14.99389135387390 ES'HAIL 2 1 43700U 18090A 25340.90461594 .00000150 00000+0 00000+0 0 9998 2 43700 0.0137 38.1907 0001529 230.2571 158.9740 1.00274123 25744 FOX-1CLIFF (AO-95) 1 43770U 18099N 25340.87498948 .00018021 00000+0 79791-3 0 9996 2 43770 97.4683 37.2017 0008556 309.8112 50.2370 15.21674112383920 ITASAT 1 43786U 18099AE 25340.88950548 .00012660 00000+0 66196-3 0 9991 2 43786 97.4329 31.3233 0012217 306.1854 53.8248 15.15935801383742 JY1SAT (JO-97) 1 43803U 18099AX 25340.72012307 .00027274 00000+0 10427-2 0 9998 2 43803 97.4424 38.5564 0005627 226.1365 133.9410 15.26557427384196 UWE-4 1 43880U 18111E 25340.76326469 .00039243 00000+0 11903-2 0 9998 2 43880 97.5859 257.1235 0007956 305.9709 54.0795 15.33981596381162 DUCHIFAT-3 1 44854U 19089C 25337.20011490 .01105376 61298-3 19590-2 0 9997 2 44854 36.9264 289.0060 0011658 216.1192 143.8795 16.00863037330619 TIANYAN 01 1 44881U 19093C 25340.90998540 .00001860 00000+0 21825-3 0 9990 2 44881 97.7766 52.6720 0013726 5.5412 354.5953 14.86083109322851 RS-44 & BREEZE-KM R/B 1 44909U 19096E 25340.83774749 .00000020 00000+0 39903-4 0 9993 2 44909 82.5204 107.5302 0216844 233.9304 124.1541 12.79745862277742 SALSAT 1 46495U 20068K 25340.95890522 .00012794 00000+0 49717-3 0 9991 2 46495 97.8780 327.9198 0008644 253.9020 106.1265 15.26175245286006 XW-3 (CAS-9) 1 50466U 21131B 25340.95675953 .00001167 00000+0 37603-3 0 9998 2 50466 98.5061 69.4076 0003360 327.6155 32.4827 14.41100359207424 GREENCUBE (IO-117) 1 53109U 22080E 25339.41693315 -.00000003 00000+0 00000+0 0 9996 2 53109 70.1582 5.6280 0008843 329.0635 30.9503 6.42583207 79615 STRATOSAT-TK 1 (RS52S) 1 57167U 23091B 25340.94648329 .00300946 00000+0 21152-2 0 9994 2 57167 97.5224 52.9160 0003921 343.8339 16.2799 15.73262508135965 UMKA 1 (RS40S) 1 57172U 23091G 25340.94184468 .00010101 00000+0 49769-3 0 9995 2 57172 97.5346 35.4319 0015065 71.8043 288.4829 15.18051925134818 CUBESX-HSE 3 (RS42S) 1 57178U 23091N 25340.90845511 .00020189 00000+0 79533-3 0 9999 2 57178 97.5379 39.5525 0013283 55.8967 304.3529 15.25554478135052 MONITOR-3 (RS58S) 1 57180U 23091Q 25340.96572489 .00017153 00000+0 72473-3 0 9992 2 57180 97.5372 38.3316 0014166 59.4526 300.8107 15.23221504134988 MONITOR-4 (RS57S) 1 57182U 23091S 25340.95544134 .00016971 00000+0 71563-3 0 9995 2 57182 97.5368 38.2820 0014200 59.9717 300.2926 15.23291508134984 MONITOR-2 (RS39S) 1 57184U 23091U 25340.94836334 .00008986 00000+0 46183-3 0 9999 2 57184 97.5372 35.4568 0013207 64.3504 295.9092 15.16632268134796 SVYATOBOR 1 (RS60S) 1 57187U 23091X 25340.90695202 .00015341 00000+0 66096-3 0 9993 2 57187 97.5380 38.9007 0011370 53.0772 307.1504 15.22618049135013 VIZARD-METEO (RS38S) 1 57189U 23091Z 25340.94777326 .00024062 00000+0 85173-3 0 9994 2 57189 97.5369 42.2750 0009188 42.0489 318.1455 15.29097859135241 NANOZOND 1 (RS49S) 1 57190U 23091AA 25340.94657020 .00089426 00000+0 14637-2 0 9995 2 57190 97.5296 50.5324 0004695 20.7290 339.4152 15.52180157135804 POLYTECH-UNIVERSE 3 (R*) 1 57191U 23091AB 25340.86706757 .00008976 00000+0 45834-3 0 9994 2 57191 97.5344 34.8903 0017836 79.1248 281.1991 15.16795656134774 UTMN 2 (RS27S) 1 57203U 23091AP 25340.90677713 .00019295 00000+0 73971-3 0 9991 2 57203 97.5372 40.9423 0010039 45.7700 314.4361 15.26505855135159 KUZGTU 1 (RS47S) 1 57217U 23091AV 25340.95412423 .00018913 00000+0 76536-3 0 9992 2 57217 97.5352 38.8920 0013478 58.1041 302.1506 15.24665432135034 SONATE-2 1 59112U 24043Q 25340.95287712 .00038342 00000+0 82168-3 0 9993 2 59112 97.5332 116.9902 0008953 182.7786 177.3414 15.44619271 98083 MESAT1 1 60209U 24125G 25340.83363316 .00048625 00000+0 99983-3 0 9993 2 60209 97.2522 191.2032 0013728 200.8099 159.2593 15.45723981 79693 OOV-CUBE (TUBSAT-30) 1 60240U 24128F 25340.88673663 .00004667 00000+0 36151-3 0 9991 2 60240 61.9934 175.5555 0058591 93.1050 267.6747 15.01552445 77224 COLIBRI-S (RS67S) 1 61746U 24199M 25340.90214146 .00027543 00000+0 71386-3 0 9998 2 61746 97.3260 208.8338 0008318 257.4284 102.6032 15.38960936107751 HORS 3 (RS81S) 1 61753U 24199U 25340.90972337 .00036995 00000+0 86140-3 0 9994 2 61753 97.3231 209.4229 0006312 265.6513 94.4013 15.42173921107809 HORS 4 (RS82S) 1 61754U 24199V 25340.91608351 .00042903 00000+0 94291-3 0 9990 2 61754 97.3214 209.8424 0006419 263.6993 96.3524 15.43867360107839 HORIZON (RS59S) 1 61757U 24199Y 25340.94742194 .00079086 00000+0 12695-2 0 9999 2 61757 97.3222 211.8897 0005333 242.0896 117.9818 15.52761714107961 ARCTICSAT 1 (RS74S) 1 61762U 24199AD 25340.87364102 .00079015 00000+0 13336-2 0 9991 2 61762 97.3226 211.6803 0005421 236.6587 123.4147 15.51355896107944 SIT-2086 1 61764U 24199AF 25340.91360169 .00027723 00000+0 64335-3 0 9992 2 61764 97.3229 210.1795 0006171 252.3657 107.6917 15.42333656104697 MORDOVIA-IOT (RS50S) 1 61765U 24199AG 25340.90592383 .00175171 00000+0 16030-2 0 9996 2 61765 97.3140 214.2665 0002697 201.4036 158.7112 15.67248067104979 RUZAEVKA 390 (RS44S) 1 61766U 24199AH 25340.91731031 .00111686 00000+0 13465-2 0 9993 2 61766 97.3174 213.3449 0003266 221.9227 138.1780 15.60403807104914 HYPERVIEW 1G (RS66S) 1 61772U 24199AP 25340.92313323 .00059129 00000+0 11575-2 0 9994 2 61772 97.3211 210.2877 0008056 264.7666 95.2664 15.47176397104716 ALTAIR (RS65S) 1 61779U 24199AW 25340.86428018 .00016567 00000+0 52685-3 0 9999 2 61779 97.3260 206.7120 0012473 278.6067 81.3762 15.32605831107616 ASRTU-1 (AO-123) 1 61781U 24199AY 25340.92424596 .00016305 00000+0 53224-3 0 9996 2 61781 97.3250 206.4382 0013000 279.4514 80.5259 15.31764300104455 TUSUR GO (RS78S) 1 61782U 24199AZ 25340.94540679 .00084311 00000+0 13878-2 0 9992 2 61782 97.3183 210.9885 0006887 263.3540 96.6929 15.52028441104763 SAMSAT-IONOSPHERE (RS7*) 1 61784U 24199BB 25340.91058839 .00041100 00000+0 94600-3 0 9995 2 61784 97.3226 209.1297 0009919 269.5488 90.4623 15.42467283107786 RTU MIREA 1 (RS51S) 1 61785U 24199BC 25340.86710756 .00049551 00000+0 10975-2 0 9993 2 61785 97.3223 209.3302 0009532 267.4551 92.5606 15.43576675104645 HADES-R 1 62690U 25009CK 25340.66415054 .00227644 00000+0 31283-2 0 9997 2 62690 97.3890 63.0610 0001542 233.5190 126.5923 15.56512027 49838 TEVEL2-4 1 63213U 25052D 25340.62151249 .00029929 00000+0 11367-2 0 9993 2 63213 97.4108 232.4940 0005296 74.9279 285.2546 15.26757838 40659 TEVEL2-5 1 63214U 25052E 25340.62667781 .00029138 00000+0 11093-2 0 9995 2 63214 97.4102 232.4874 0005188 75.1365 285.0448 15.26685082 40659 TEVEL2-6 1 63215U 25052F 25340.96152014 .00026051 00000+0 99333-3 0 9996 2 63215 97.4106 232.8083 0005401 75.1047 285.0789 15.26654396 40703 TEVEL2-1 1 63217U 25052H 25340.67518121 .00029775 00000+0 11459-2 0 9999 2 63217 97.4083 232.3400 0005399 84.0441 276.1413 15.26319716 40653 TEVEL2-3 1 63218U 25052J 25340.93670166 .00025396 00000+0 97743-3 0 9993 2 63218 97.4083 232.6047 0005354 84.1789 276.0060 15.26349702 40690 TEVEL2-2 1 63219U 25052K 25340.93819218 .00025833 00000+0 99470-3 0 9992 2 63219 97.4080 232.6014 0005399 84.2635 275.9220 15.26330991 40698 TEVEL2-9 1 63237U 25052AD 25340.96118687 .00024282 00000+0 97691-3 0 9997 2 63237 97.4143 232.3389 0009209 97.4585 262.7699 15.24851536 40666 TEVEL2-7 1 63238U 25052AE 25340.64639138 .00027815 00000+0 11234-2 0 9995 2 63238 97.4149 232.0021 0009290 98.6358 261.5932 15.24692161 40613 TEVEL2-8 1 63239U 25052AF 25340.65192583 .00027107 00000+0 10959-2 0 9992 2 63239 97.4145 231.9929 0009241 99.3572 260.8711 15.24663872 40611 HADES-ICM 1 63492U 25052BN 25340.64950731 .00092290 00000+0 24065-2 0 9997 2 63492 97.4074 234.0951 0011664 89.8723 270.3859 15.38421092 40762 INNOSAT 16 (RS92S7) 1 64878U 25155C 25340.90286399 .00007072 00000+0 30596-3 0 9992 2 64878 97.4329 304.3377 0012412 135.0996 225.1246 15.22679518 51384 GEOSCAN 6 (RS92S6) 1 64879U 25155D 25340.90281127 .00017335 00000+0 68871-3 0 9997 2 64879 97.4333 304.6611 0010108 127.3253 232.8908 15.25335087 51400 GEOSCAN 1 (RS92S1) 1 64880U 25155E 25340.95913069 .00017845 00000+0 70344-3 0 9995 2 64880 97.4335 304.7441 0010016 127.4500 232.7651 15.25591383 51418 239ALFEROV (RS61S) 1 64881U 25155F 25340.92378621 .00022404 00000+0 86066-3 0 9997 2 64881 97.4344 304.8108 0009743 127.0295 233.1836 15.26407402 51411 GEOSCAN 2 (RS92S2) 1 64890U 25155Q 25340.92498217 .00017817 00000+0 69561-3 0 9994 2 64890 97.4331 304.7783 0009590 116.2171 244.0054 15.25918580 51414 GEOSCAN 5 (RS92S5) 1 64891U 25155R 25340.95506916 .00020870 00000+0 79364-3 0 9999 2 64891 97.4336 304.9004 0008347 130.3427 229.8542 15.26771441 51426 GEOSCAN 4 (RS92S4) 1 64892U 25155S 25340.95242693 .00021329 00000+0 80929-3 0 9998 2 64892 97.4339 304.9073 0008364 131.0483 229.1480 15.26840134 51425 GEOSCAN 3 (RS92S3) 1 64893U 25155T 25340.92499721 .00026899 00000+0 99818-3 0 9996 2 64893 97.4334 304.9383 0008071 132.2218 227.9707 15.27530953 51423 INNOSAT 3 (RS92S0) 1 64894U 25155U 25340.91195202 .00040062 00000+0 13816-2 0 9994 2 64894 97.4320 305.0983 0007849 130.3931 229.7996 15.29850009 51430